User: anonymous   Login
Location: Unspecified
(0.0000°N, 0.0000°E)
Time: 01:19:14
(UTC+00:00)
Language:

Meteor 3-1 - Orbit

View from above orbital plane
View from above orbital plane
View from above satellite
View from above satellite

Ground track
Ground track

The orbit data is extracted from the following two-line orbital elements,

1 16191U 85100A   18200.81061536  .00000033  00000-0  54334-4 0  9992
2 16191  82.5484 280.3828 0020154  25.5946 112.3384 13.17213171574145
Epoch (UTC): 19 July 2018 19:27:17
Eccentricity: 0.0020154
inclination: 82.5484°
perigee height: 1180 km
apogee height: 1210 km
right ascension of ascending node: 280.3828°
argument of perigee: 25.5946°
revolutions per day: 13.17213171
mean anomaly at epoch: 112.3384°
orbit number at epoch: 57414

The dashed part of the orbit path shows where the satellite is in the earth's shadow,  

DLR